Flag for Ireland Weather past 2 weeks in Dublin, Ireland

Now
37 °F

Scattered showers. Scattered clouds.


Feels Like: 27 °F
Forecast: 34 / 42 °F
Wind: 21 mph from West

Location: Dublin Airport

Current Time: Mar 2, 2015 at 1:13:42 PM

Latest Report: Mar 2, 2015 at 1:00 PM


Visibility: 4 mi

Pressure: 29.71 "Hg

Humidity: 81%

Dew point: 32 °F

Location of DublinLocation

Historic Weather in Dublin — Graph

°F

Dublin temperature yesterday

Maximum temperature yesterday: 43 °F (at 12:00 AM)
Minimum temperature yesterday: 32 °F (at 12:30 PM)
Average temperature yesterday: 38 °F

Past Weeks' High & Low Weather Summary

 TemperatureHumidityPressure
High54 °F (Feb 18, 11:30 AM)100% (Feb 16, 12:00 AM)30.60 "Hg (Feb 16, 12:00 AM)
Low32 °F (Feb 16, 11:30 PM)57% (Feb 26, 12:30 PM)28.88 "Hg (Feb 23, 3:00 PM)
Average42 °F84%29.73 "Hg
* Reported Feb 15 12:00 Noon — Mar 2 12:00 Noon, Dublin, Weather by CustomWeather, © 2015

Note: Actual official high and low records may vary slightly from our data, if they occured in-between our weather recording intervals... More about our weather records

Advertising

Dublin weather history for previous 24 hours

 ConditionsComfort  
Time TempWeatherWind HumidityBarometerVisibility
12:00 PM
Mon, Mar 2
36 °FScattered showers. Scattered clouds.21 mph87%29.71 "HgN/A
11:30 AM39 °FScattered clouds.25 mph75%29.68 "HgN/A
11:00 AM39 °FScattered clouds.28 mph70%29.68 "HgN/A
10:30 AM37 °FPassing clouds.25 mph81%29.65 "HgN/A
10:00 AM37 °FPassing clouds.25 mph75%29.65 "HgN/A
9:30 AM36 °FPassing clouds.25 mph81%29.62 "HgN/A
9:00 AM34 °FPassing clouds.22 mph87%29.59 "HgN/A
8:30 AM34 °FPassing clouds.20 mph87%29.56 "HgN/A
8:00 AM34 °FPassing clouds.24 mph87%29.56 "HgN/A
7:30 AM34 °FPartly sunny.26 mph87%29.53 "HgN/A
7:00 AM32 °FPassing clouds.26 mph93%29.50 "HgN/A
6:30 AM32 °FPassing clouds.28 mph93%29.47 "HgN/A
6:00 AM34 °FPassing clouds.30 mph87%29.45 "HgN/A
5:30 AM34 °FPassing clouds.29 mph87%29.45 "HgN/A
5:00 AM34 °FPassing clouds.23 mph87%29.45 "HgN/A
4:30 AM32 °FSnow flurries. Passing clouds.31 mph100%29.42 "Hg4 mi
4:00 AM34 °FPartly cloudy.18 mph93%29.42 "HgN/A
3:00 AM36 °FSprinkles. Partly cloudy.16 mph93%29.45 "Hg6 mi
2:30 AM36 °FSprinkles. Passing clouds.21 mph87%29.45 "Hg6 mi
2:00 AM34 °FPartly cloudy.14 mph93%29.45 "HgN/A
1:30 AM34 °FSprinkles. Partly cloudy.21 mph93%29.45 "Hg6 mi
1:00 AM36 °FPassing clouds.16 mph87%29.45 "HgN/A
12:30 AM36 °FPassing clouds.17 mph87%29.45 "HgN/A
12:00 AM36 °FPassing clouds.17 mph87%29.45 "HgN/A
11:30 PM
Sun, Mar 1
36 °FPassing clouds.17 mph87%29.45 "HgN/A
11:00 PM36 °FPassing clouds.18 mph87%29.45 "HgN/A
10:30 PM36 °FPassing clouds.18 mph87%29.45 "HgN/A
10:00 PM36 °FPassing clouds.14 mph87%29.45 "HgN/A
9:30 PM36 °FPartly cloudy.16 mph87%29.45 "HgN/A
9:00 PM36 °FSprinkles. Partly cloudy.21 mph87%29.45 "HgN/A
8:30 PM36 °FPassing clouds.12 mph81%29.45 "HgN/A
7:30 PM37 °FPassing clouds.14 mph75%29.42 "HgN/A
7:00 PM37 °FPassing clouds.14 mph75%29.42 "HgN/A
6:30 PM39 °FPassing clouds.14 mph75%29.42 "HgN/A
6:00 PM39 °FPassing clouds.20 mph70%29.39 "HgN/A
5:30 PM41 °FPassing clouds.24 mph66%29.39 "HgN/A
5:00 PM41 °FPassing clouds.22 mph70%29.36 "HgN/A
4:30 PM39 °FPassing clouds.18 mph81%29.36 "HgN/A
4:00 PM39 °FPassing clouds.22 mph81%29.33 "HgN/A
3:30 PM37 °FScattered clouds.21 mph87%29.33 "HgN/A
3:00 PM36 °FBroken clouds.18 mph93%29.33 "HgN/A
2:30 PM36 °FPartly sunny.16 mph93%29.33 "HgN/A
2:00 PM34 °FBroken clouds.9 mph100%29.33 "HgN/A
1:30 PM32 °FLight snow. Broken clouds.12 mph100%29.33 "Hg5 mi
1:00 PM32 °FSnow. Broken clouds.15 mph100%29.36 "Hg1 mi
Weather by CustomWeather, © 2015

See weather overviewHow to use our weather pages